EHI
0 0 0 0 0 0 0 0 0 0 0 0 0 0 0 0 0 0 0 0 0 0 0 0 0 0 0 0 0 0 0 0 0 0 0 0 0 0
0 0 0 0 0 0 0 0 0 0 0 0 0 0 0 0 0 0 0 0 0 0 0 0 0 0 0 0 0 0 0 0 0 0 0 0 0 0
0 0 0 0 0 0 0 0 0 0 0 0 0 0 0 0 0 0 0 0 0 0 0 0 0 0 0 0 0 0 0 0 0 0 0 0 0 0
0 0 0 0 0 0 0 0 0 0 0 0 0 0 0 0 0 0 0 0 0 0 0 0 0 0 0 0 0 0 0 0 0 0 0 0 0 0
0 0 0 0 0 0 0 0 0 0 0 0 0 0 0 0 0 0 0 0 0 0 0 0 0 0 0 0 0 0 0 0 0 0 0 0 0 0
0 0 0 0 0 0 0 0 0 0 0 0 0 0 0 0 0 0 0 0 0 0 0 0 0 0 0 0 0 0 0 0 0 0 0 0 0 0
0 0 0 0 0 0 0 0 0 0 0 0 0 0 0 0 0 0 0 0 0 0 0 0 0 0 0 0 0 0 0 0 0 0 0 0 0 0
0 0 0 0 0 0 0 0 0 0 0 0 0 0 0 0 0 0 0 0 0 0 0 0 0 0 0 0 0 0 0 0 0 0 0 0 0 0
0 0 0 0 0 0 0 0 0 0 0 0 0 0 0 0 0 0 0 0 0 0 0 0 0 0 0 0 0 0 0 0 0 0 0 0 0 0
0 0 0 0 0 0 0 0 0 0 0 0 0 0 0 0 0 0 0 0 0 0 0 0 0 0 0 0 0 0 0 0 0 0 0 0 0 0
0 0 0 0 0 0 0 0 0 0 0 0 0 0 0 0 0 0 0 0 0 0 0 0 0 0 0 0 0 0 0 0 0 0 0 0 0 0
0 0 0 0 0 0 0 0 0 0 0 0 0 0 0 0 0 0 0 0 0 0 0 0 0 0 0 0 0 0 0 0 0 0 0 0 0 0
0 0 0 0 0 0 0 0 0 0 0 0 0 0 0 0 0 0 0 0 0 0 0 0 0 0 0 0 0 0 0 0 0 0 0 0 0 0
0 0 0 0 0 0 0 0 0 0 0 0 0 0 0 0 0 0 0 0 0 0 0 0 0 0 0 0 0 0 0 0 0 0 0 0 0 0
0 0 0 0 0 0 0 0 0 0 0 0 0 0 0 0 0 0 0 0 0 0 0 0 0 0 0 0 0 0 0 0 0 0 0 0 0 0
0 0 0 0 0 0 0 0 0 0 0 0 0 0 0 0 0 0 0 0 0 0 0 0 0 0 0 0 0 0 0 0 0 0 0 0 0 0
0 0 0 0 0 0 0 0 0 0 0 0 0 0 0 0 0 0 0 0 0 0 0 0 0 0 0 0 0 0 0 0 0 0 0 0 0 0
0 0 0 0 0 0 0 0 0 0 0 0 0 0 0 0 0 0 0 0 0 0 0 0 0 0 0 0 0 0 0 0 0 0 0 0 0 0
0 0 0 0 0 0 0 0 0 0 0 0 0 0 0 0 0 0 0 0 0 0 0 0 0 0 0 0 0 0 0 0 0 0 0 0 0 0
0 0 0 0 0 0 0 0 0 0 0 0 0 0 0 0 0 0 0 0 0 0 0 0 0 0 0 0 0 0 0 0 0 0 0 0 0 0
0 0 0 0 0 0 0 0 0 0 0 0 0 0 0 0 0 0 0 0 0 0 0 0 0 0 0 0 0 0 0 0 0 0 0 0 0 0
0 0 0 0 0 0 0 0 0 0 0 0 0 0 0 0 0 0 0 0 0 0 0 0 0 0 0 0 0 0 0 0 0 0 0 0 0 0
0 0 0 0 0 0 0 0 0 0 0 0 0 0 0 0 0 0 0 0 0 0 0 0 0 0 0 0 0 0 0 0 0 0 0 0 0 0
Wind_Speed
3 3 3 2 3 3 3 4 4 5 5 4 4 3 4 4 6 6 6 8 10 11 11 11 12 12 12 12 12 12 12 11 11 12 12 12 13 14
2 3 3 3 3 3 4 4 4 5 6 5 5 7 6 5 7 7 7 10 10 11 11 12 11 11 12 12 12 12 12 13 12 13 13 13 14 14
3 3 4 4 4 4 4 4 5 5 7 7 6 7 8 7 6 7 7 7 6 10 11 12 11 12 13 13 13 13 13 13 13 13 14 14 15 15
3 3 4 3 5 4 4 5 5 6 7 9 7 7 8 8 7 8 7 6 7 10 11 12 12 13 13 13 13 13 13 13 14 14 15 15 16 16
4 4 4 5 5 5 5 6 5 5 6 7 8 7 7 6 7 7 8 7 7 8 10 11 12 13 14 14 14 13 13 14 15 15 15 15 16 16
4 5 5 5 6 6 6 6 6 6 6 7 7 7 6 7 7 6 6 6 6 7 8 9 11 12 13 14 14 14 14 15 16 16 16 16 16 17
5 5 5 6 7 7 6 6 6 6 6 7 7 7 6 6 7 6 7 7 7 6 7 7 7 8 9 11 13 14 15 15 16 17 17 17 17 18
5 5 5 6 7 9 10 10 10 8 8 7 7 8 9 8 8 7 7 8 7 5 7 8 7 8 8 8 12 15 16 17 17 17 18 18 18 19
5 5 4 5 7 6 8 9 10 11 12 10 10 10 10 9 9 10 9 9 9 7 8 9 8 9 8 9 15 17 17 17 17 17 18 18 18 18
6 6 6 6 6 7 7 7 8 8 9 8 9 10 9 9 9 9 10 10 10 8 8 9 8 9 9 9 14 16 16 16 17 17 18 19 19 19
6 6 6 7 8 10 8 8 8 8 8 11 12 13 14 14 11 8 8 8 9 7 6 8 8 9 9 9 10 14 15 16 17 17 18 18 17 17
5 5 7 8 10 11 8 7 8 8 7 8 9 10 10 10 11 9 7 8 8 7 5 6 7 7 7 7 7 7 9 13 16 16 17 17 16 12
5 4 4 8 10 11 10 7 9 9 7 7 7 7 7 7 7 7 7 7 8 8 7 7 7 7 8 9 8 8 8 8 9 11 13 15 15 13
5 5 5 8 10 11 9 9 11 10 6 6 6 6 6 6 6 7 8 8 9 10 10 9 8 8 9 10 9 8 8 8 8 9 8 11 13 16
5 8 9 10 10 8 9 11 9 6 6 6 7 7 6 7 7 7 8 8 10 10 9 10 10 9 9 10 10 9 9 9 8 8 8 8 8 8
6 7 9 9 8 8 8 6 5 5 6 6 7 7 6 6 7 6 7 6 7 7 8 9 9 10 9 10 9 10 9 8 7 8 8 8 8 8
5 4 4 4 5 4 5 5 5 5 6 6 6 6 6 6 6 6 6 7 7 8 8 6 7 8 10 9 9 9 9 8 8 8 8 8 8 8
6 4 4 5 5 5 5 5 5 5 6 6 6 6 6 7 7 7 7 7 8 8 8 7 6 7 7 7 9 9 8 8 8 8 8 8 9 8
5 4 5 5 5 5 5 6 6 6 6 6 6 6 7 7 7 7 7 7 8 8 7 7 6 6 8 9 7 7 8 8 8 8 7 8 9 9
4 5 5 5 5 6 6 6 6 6 6 6 7 7 7 7 7 7 7 8 8 8 8 7 6 7 8 9 9 8 9 9 8 8 8 8 9 11
5 5 5 5 6 6 6 6 7 7 7 7 7 7 7 7 7 7 8 10 10 8 9 8 8 10 8 7 8 8 8 9 10 8 9 8 9 8
5 6 6 6 6 6 6 6 7 7 7 7 7 7 7 7 8 9 8 8 8 8 9 8 8 7 6 8 9 10 10 8 9 12 13 11 8 7
6 6 6 6 6 6 6 7 8 7 7 7 7 7 7 7 7 8 8 8 8 9 9 8 7 7 7 8 9 9 11 10 8 7 8 10 14 15
Wind_Direction
280 280 279 281 275 272 270 271 277 285 288 297 299 293 303 298 302 297 296 305 307 305 305 306 307 305 303 300 294 288 284 282 279 278 278 279 280 280
280 278 276 277 276 270 268 267 264 268 276 285 292 299 294 287 292 290 289 298 292 293 297 301 300 300 299 299 295 292 287 281 277 275 275 275 275 277
278 278 285 287 279 273 271 266 265 267 273 283 285 292 290 287 289 288 286 286 285 289 292 293 296 297 296 294 293 290 287 283 279 277 276 276 276 276
278 281 285 288 285 278 271 269 269 272 275 283 289 290 288 287 285 286 287 284 283 287 289 289 291 292 291 290 289 290 289 286 281 278 276 276 275 275
277 281 286 286 284 284 282 276 274 275 276 280 286 290 286 287 286 283 283 284 285 285 285 284 284 288 288 286 286 286 287 288 285 279 276 274 274 274
276 278 281 280 282 283 283 282 281 279 277 277 280 284 285 289 287 284 285 284 286 287 283 284 285 286 284 283 283 282 283 283 284 282 277 273 271 271
277 277 277 282 286 284 282 283 283 279 279 279 283 284 284 285 286 286 283 285 283 282 284 282 282 278 277 276 276 277 278 278 279 279 277 274 270 269
281 281 280 275 278 281 283 285 284 282 282 282 284 283 285 288 293 288 284 284 283 281 284 283 280 277 275 273 276 278 278 278 277 278 277 275 272 270
279 282 283 283 283 282 282 281 279 278 278 278 279 281 284 286 287 287 285 283 285 289 285 281 279 276 275 274 278 277 276 278 278 279 278 275 273 271
277 277 280 282 282 286 285 283 282 280 279 276 278 283 286 286 281 283 285 287 287 278 276 279 279 278 278 274 274 274 275 276 279 280 280 277 274 271
278 278 280 282 287 288 287 286 287 287 286 283 284 286 289 290 289 283 281 281 284 284 279 279 283 286 282 276 272 272 276 278 278 278 279 279 278 277
281 279 275 281 289 290 287 287 287 291 293 292 287 286 285 285 284 277 276 275 282 286 278 281 287 296 288 277 280 280 278 277 279 280 280 279 279 273
283 285 285 289 290 293 293 288 290 298 296 293 291 289 288 284 279 277 275 272 273 276 283 284 285 284 280 286 285 283 282 284 282 279 276 276 276 272
282 284 288 294 294 295 294 294 297 297 291 289 287 287 288 288 285 283 280 276 271 274 278 278 276 275 279 282 284 283 282 281 281 281 279 279 275 271
285 286 289 291 292 289 289 294 295 288 285 284 284 286 288 290 289 284 280 277 275 273 273 270 270 270 268 275 279 283 286 281 277 278 279 279 278 276
285 287 289 289 286 288 291 288 283 283 284 283 287 288 289 288 285 284 283 283 282 282 275 271 270 269 266 271 274 279 282 281 281 280 279 280 278 272
293 283 280 283 283 283 285 286 286 284 280 281 283 286 286 286 285 287 284 282 278 283 286 281 273 269 265 268 274 276 280 280 283 286 285 282 279 276
289 278 279 280 283 286 287 287 284 283 283 282 280 281 283 285 286 285 282 279 278 280 283 286 286 284 276 260 252 271 275 279 284 283 280 281 283 282
283 281 281 282 282 284 285 285 285 285 283 279 277 278 280 281 282 283 282 280 279 279 281 282 279 277 280 283 272 254 274 282 284 280 278 277 280 284
279 279 279 280 280 280 281 282 283 283 279 277 276 276 276 277 279 280 279 280 282 282 281 277 272 267 268 278 286 282 272 273 276 278 281 280 280 283
279 277 277 277 277 278 279 280 280 279 278 277 276 276 275 274 275 276 278 281 280 279 280 279 279 282 277 274 272 276 278 272 274 275 281 283 286 288
280 278 277 275 275 276 278 278 278 277 277 274 274 275 274 273 273 275 276 278 277 278 281 283 287 282 269 265 271 281 287 287 280 275 270 267 275 281
282 283 282 280 275 274 275 275 275 275 274 274 274 274 274 273 272 273 274 273 276 280 282 286 286 279 271 268 272 278 284 287 285 283 275 274 274 276